Location: Peebles
(55.6412°N, 3.1714°W)
Time: 06:59:51
(UTC+01:00)

NOAA 16 DEB - Pass Details

Date: 12 July 2022
Orbit: 836 x 886 km, 98.9° (Epoch: 10 August)

Event Time Altitude Azimuth Distance (km) Brightness Sun altitude
Exits shadow 23:54:48 - 199° (SSW) 2,813 ? -10.3°
Reaches altitude 10° 23:55:51 10° 204° (SSW) 2,449 ? -10.4°
Maximum altitude 00:00:39 32° 266° (W) 1,425 ? -10.6°
Drops below altitude 10° 00:05:31 10° 329° (NNW) 2,478 ? -10.8°
Sets 00:08:10 0° 339° (NNW) 3,425 ? -10.9°
